• In Germany
  • List of Countries
  • For 7 days
  • Water Temperature
  • Satellite Maps
  • Weather Map
  • Weather Widgets
  • user-avatar
    Login

    Hourly Weather Veliko Tarnovo

    Today, 21 November, Tuesday

    Time Temperature Precipitation Wind Pressure Humidity
    00:00 0°C° 0 mm 5 mps 738 mmHg 76%
    01:00 0°C° 0 mm 4 mps 739 mmHg 77%
    02:00 0°C° 0 mm 4 mps 739 mmHg 77%
    03:00 -1°C° 0 mm 4 mps 739 mmHg 78%
    04:00 -1°C° 0 mm 4 mps 739 mmHg 79%
    05:00 0°C° 0 mm 3 mps 740 mmHg 80%
    06:00 0°C° 0 mm 3 mps 740 mmHg 80%
    07:00 0°C° 0 mm 3 mps 740 mmHg 80%
    08:00 0°C° 0 mm 3 mps 740 mmHg 79%
    09:00 +1°C° 0 mm 4 mps 741 mmHg 74%
    10:00 +3°C° 0 mm 4 mps 741 mmHg 68%
    11:00 +3°C° 0 mm 5 mps 741 mmHg 63%
    12:00 +5°C° 0 mm 4 mps 740 mmHg 60%
    13:00 +6°C° 0 mm 4 mps 740 mmHg 56%
    14:00 +6°C° 0 mm 4 mps 740 mmHg 53%
    15:00 +7°C° 0 mm 3 mps 740 mmHg 57%
    16:00 +5°C° 0 mm 3 mps 740 mmHg 60%
    17:00 +5°C° 0 mm 2 mps 739 mmHg 64%
    18:00 +5°C° 0 mm 2 mps 739 mmHg 64%
    19:00 +5°C° 0 mm 2 mps 739 mmHg 65%
    20:00 +5°C° 0 mm 2 mps 739 mmHg 65%
    21:00 +5°C° 0 mm 2 mps 739 mmHg 66%
    22:00 +5°C° 0 mm 2 mps 739 mmHg 67%
    23:00 +6°C° 0 mm 2 mps 740 mmHg 68%

    Tomorrow, 22 November, Wednesday

    Time Temperature Precipitation Wind Pressure Humidity
    00:00 +6°C° 0.1 mm 2 mps 739 mmHg 69%
    01:00 +6°C° 0.1 mm 2 mps 739 mmHg 69%
    02:00 +6°C° 0.1 mm 2 mps 739 mmHg 69%
    03:00 +6°C° 0 mm 2 mps 739 mmHg 69%
    04:00 +6°C° 0 mm 2 mps 739 mmHg 68%
    05:00 +6°C° 0 mm 2 mps 739 mmHg 67%
    06:00 +6°C° 0 mm 2 mps 739 mmHg 67%
    07:00 +6°C° 0 mm 2 mps 739 mmHg 67%
    08:00 +6°C° 0 mm 2 mps 740 mmHg 67%
    09:00 +8°C° 0 mm 3 mps 740 mmHg 64%
    10:00 +8°C° 0 mm 4 mps 740 mmHg 61%
    11:00 +10°C° 0 mm 5 mps 740 mmHg 57%
    12:00 +10°C° 0 mm 5 mps 740 mmHg 57%
    13:00 +12°C° 0 mm 5 mps 740 mmHg 56%
    14:00 +13°C° 0 mm 5 mps 739 mmHg 55%
    15:00 +12°C° 0 mm 4 mps 739 mmHg 60%
    16:00 +11°C° 0 mm 3 mps 739 mmHg 64%
    17:00 +10°C° 0 mm 2 mps 739 mmHg 68%
    18:00 +9°C° 0 mm 2 mps 740 mmHg 69%
    19:00 +9°C° 0 mm 2 mps 740 mmHg 69%
    20:00 +9°C° 0 mm 2 mps 740 mmHg 70%
    21:00 +8°C° 0 mm 2 mps 740 mmHg 70%
    22:00 +8°C° 0 mm 2 mps 740 mmHg 70%
    23:00 +8°C° 0 mm 2 mps 740 mmHg 70%

    Day after tomorrow, 23 November, Thursday

    Time Temperature Precipitation Wind Pressure Humidity
    00:00 +8°C° 0 mm 2 mps 740 mmHg 70%
    01:00 +8°C° 0 mm 2 mps 740 mmHg 70%
    02:00 +7°C° 0 mm 2 mps 740 mmHg 70%
    03:00 +7°C° 0 mm 2 mps 740 mmHg 70%
    04:00 +7°C° 0 mm 2 mps 740 mmHg 70%
    05:00 +8°C° 0 mm 1 mps 740 mmHg 70%
    06:00 +8°C° 0 mm 1 mps 740 mmHg 70%
    07:00 +8°C° 0 mm 1 mps 741 mmHg 70%
    08:00 +8°C° 0 mm 1 mps 741 mmHg 70%
    09:00 +10°C° 0 mm 1 mps 742 mmHg 64%
    10:00 +10°C° 0 mm 2 mps 742 mmHg 59%
    11:00 +13°C° 0 mm 2 mps 742 mmHg 53%
    12:00 +14°C° 0 mm 2 mps 742 mmHg 52%
    13:00 +14°C° 0 mm 2 mps 742 mmHg 51%
    14:00 +15°C° 0 mm 2 mps 742 mmHg 51%
    15:00 +13°C° 0 mm 1 mps 742 mmHg 56%
    16:00 +12°C° 0 mm 1 mps 742 mmHg 61%
    17:00 +10°C° 0 mm 0 mps 742 mmHg 66%
    18:00 +9°C° 0 mm 0 mps 743 mmHg 68%
    19:00 +10°C° 0 mm 1 mps 743 mmHg 69%
    20:00 +9°C° 0 mm 1 mps 743 mmHg 71%
    21:00 +9°C° 0 mm 1 mps 744 mmHg 72%
    22:00 +9°C° 0 mm 1 mps 744 mmHg 72%
    23:00 +9°C° 0 mm 1 mps 744 mmHg 73%

    24 November, Friday

    Time Temperature Precipitation Wind Pressure Humidity
    00:00 +8°C° 0 mm 1 mps 744 mmHg 74%
    01:00 +8°C° 0 mm 1 mps 744 mmHg 74%
    02:00 +8°C° 0 mm 1 mps 743 mmHg 75%
    03:00 +8°C° 0 mm 1 mps 743 mmHg 75%
    04:00 +8°C° 0 mm 1 mps 743 mmHg 75%
    05:00 +7°C° 0 mm 1 mps 743 mmHg 75%
    06:00 +7°C° 0 mm 1 mps 743 mmHg 75%
    07:00 +7°C° 0 mm 1 mps 743 mmHg 75%
    08:00 +7°C° 0 mm 1 mps 744 mmHg 75%
    09:00 +9°C° 0 mm 1 mps 744 mmHg 69%
    10:00 +11°C° 0 mm 1 mps 744 mmHg 64%
    11:00 +12°C° 0 mm 1 mps 744 mmHg 59%
    12:00 +13°C° 0 mm 1 mps 744 mmHg 58%
    13:00 +13°C° 0 mm 1 mps 744 mmHg 57%
    14:00 +14°C° 0 mm 1 mps 744 mmHg 57%
    15:00 +13°C° 0 mm 1 mps 744 mmHg 62%
    16:00 +11°C° 0 mm 1 mps 744 mmHg 67%
    17:00 +10°C° 0 mm 1 mps 744 mmHg 73%
    18:00 +10°C° 0 mm 1 mps 745 mmHg 75%
    19:00 +9°C° 0 mm 1 mps 745 mmHg 77%
    20:00 +9°C° 0 mm 1 mps 746 mmHg 79%
    21:00 +8°C° 0 mm 1 mps 746 mmHg 80%
    22:00 +8°C° 0 mm 1 mps 746 mmHg 81%
    23:00 +8°C° 0 mm 1 mps 747 mmHg 82%

    25 November, Saturday

    Time Temperature Precipitation Wind Pressure Humidity
    00:00 +7°C° 0 mm 1 mps 747 mmHg 83%
    01:00 +6°C° 0 mm 0 mps 747 mmHg 84%
    02:00 +6°C° 0 mm 0 mps 747 mmHg 84%
    03:00 +6°C° 0 mm 0 mps 747 mmHg 85%
    04:00 +6°C° 0 mm 1 mps 747 mmHg 85%
    05:00 +6°C° 0 mm 1 mps 747 mmHg 85%
    06:00 +6°C° 0 mm 1 mps 747 mmHg 85%
    07:00 +6°C° 0 mm 1 mps 747 mmHg 85%
    08:00 +6°C° 0 mm 1 mps 747 mmHg 84%
    09:00 +7°C° 0 mm 0 mps 748 mmHg 77%
    10:00 +9°C° 0 mm 0 mps 748 mmHg 70%
    11:00 +10°C° 0 mm 0 mps 748 mmHg 63%
    12:00 +11°C° 0 mm 0 mps 748 mmHg 61%
    13:00 +12°C° 0 mm 0 mps 747 mmHg 58%
    14:00 +13°C° 0 mm 1 mps 747 mmHg 55%
    15:00 +12°C° 0 mm 1 mps 747 mmHg 60%
    16:00 +11°C° 0 mm 1 mps 747 mmHg 64%
    17:00 +10°C° 0 mm 1 mps 747 mmHg 69%
    18:00 +9°C° 0 mm 1 mps 747 mmHg 71%
    19:00 +9°C° 0 mm 1 mps 747 mmHg 73%
    20:00 +8°C° 0 mm 1 mps 747 mmHg 76%
    21:00 +8°C° 0 mm 1 mps 747 mmHg 77%
    22:00 +8°C° 0 mm 1 mps 747 mmHg 78%
    23:00 +8°C° 0 mm 1 mps 747 mmHg 79%

    26 November, Sunday

    Time Temperature Precipitation Wind Pressure Humidity
    00:00 +7°C° 0 mm 1 mps 747 mmHg 80%
    01:00 +7°C° 0 mm 1 mps 747 mmHg 80%
    02:00 +7°C° 0 mm 1 mps 747 mmHg 81%
    03:00 +7°C° 0 mm 1 mps 746 mmHg 81%
    04:00 +7°C° 0 mm 1 mps 746 mmHg 81%
    05:00 +6°C° 0 mm 1 mps 746 mmHg 81%
    06:00 +6°C° 0 mm 1 mps 746 mmHg 82%
    07:00 +6°C° 0 mm 1 mps 746 mmHg 82%
    08:00 +6°C° 0 mm 1 mps 746 mmHg 82%
    09:00 +8°C° 0 mm 1 mps 746 mmHg 75%
    10:00 +10°C° 0 mm 1 mps 746 mmHg 68%
    11:00 +12°C° 0 mm 1 mps 746 mmHg 62%
    12:00 +12°C° 0 mm 1 mps 746 mmHg 59%
    13:00 +13°C° 0 mm 1 mps 746 mmHg 55%
    14:00 +14°C° 0 mm 1 mps 745 mmHg 52%
    15:00 +13°C° 0 mm 1 mps 745 mmHg 58%
    16:00 +11°C° 0 mm 1 mps 745 mmHg 64%
    17:00 +10°C° 0 mm 1 mps 745 mmHg 70%
    18:00 +10°C° 0 mm 1 mps 745 mmHg 72%
    19:00 +9°C° 0 mm 1 mps 745 mmHg 74%
    20:00 +8°C° 0 mm 1 mps 745 mmHg 76%
    21:00 +8°C° 0 mm 1 mps 745 mmHg 77%
    22:00 +8°C° 0 mm 1 mps 745 mmHg 77%
    23:00 +8°C° 0 mm 1 mps 745 mmHg 78%
    Show more